FALCON 9 DEB (54212 NORAD) Tracking and Keplerian Element Data

This shows tracking and keplerian element data for the satellite.

Feedback or suggestion? Click here.




ElementValue
Catalog54212
NameFALCON 9 DEB
Epoch Orbit108
Epoch Day307.70711485
Epoch Year2022
RAAN110.8478
Inclination53.2108
Eccentricity0.005395
Argument of Perigee179.0511
Mean Anonmoly181.0636
Mean Motion16.07785936
Decay Rate0.01104126
L11 54212U 22141BH 22307.70711485 .01104126 11442-4 10609-2 0 9990
L22 54212 53.2108 110.8478 0053950 179.0511 181.0636 16.07785936 1086



Live tracking and technical data element details for FALCON 9 DEB (NORAD 54212). FALCON 9 DEB can be tracked NOW for your location showing map with azimuth and elevation plus other details from your city location.







IsCatalogInMostPopularTable: catalog: 54212, numindb: 6
Update: records affected: 1



GetName: 54212 FALCON 9 DEB

Hit Count: updated at: Sun, 04 Dec 2022 22:53:44 GMT